Alliance, NE

11:30 AM MDT on October 19, 2017 (GMT -0600)
Alliance Municipal

Weather History for KAIA - November, 2013

Change the Weather History Date:

Friday, November 15, 2013

  Actual Average Record
Temperature  
Mean Temperature 47 °F 33 °F  
Max Temperature 61 °F 49 °F 76 °F (1941)
Min Temperature 32 °F 18 °F -11 °F (2014)
Degree Days  
Heating Degree Days 18 32  
Month to date heating degree days 403 427  
Since 1 July heating degree days 1189 1269  
Cooling Degree Days 0 0  
Month to date cooling degree days 0 0  
Year to date cooling degree days 795 564  
Moisture  
Dew Point 30 °F    
Average Humidity 57    
Maximum Humidity 92    
Minimum Humidity 22    
Precipitation  
Precipitation 0.00 in 0.01 in 0.30 in (1897)
Month to date precipitation 0.45 0.24  
Year to date precipitation 13.65 15.13  
Sea Level Pressure  
Sea Level Pressure 29.55 in    
Wind  
Wind Speed 8 mph (SSW)    
Max Wind Speed 16 mph    
Max Gust Speed 18 mph    
Visibility 10 miles    
Events      
T = Trace of Precipitation, MM = Missing Value Source: NWS Daily Summary

Daily Weather History Graph

Daily Weather History Graph

Search for Another Location

Airport or City:

Trip Planner

Search our weather history database for the weather conditions in past years. The results will help you decide how hot, cold, wet, or windy it might be!

Date:

Astronomy

Nov. 15, 2013 Rise Set
Actual Time 6:41 AM MST 4:29 PM MST
Civil Twilight 6:11 AM MST 4:59 PM MST
Nautical Twilight 5:37 AM MST 5:33 PM MST
Astronomical Twilight 5:04 AM MST 6:06 PM MST
Moon 3:29 PM MST (11/15) 4:38 AM MST (11/15)
Length of Visible Light 10h 48m
Length of Day
9h 48m
Waxing Gibbous, 97% of the Moon is Illuminated
Nov 15
Waxing Gibbous
Nov 17
Full
Nov 25
Last Quarter
Dec 2
New
Dec 9
First Quarter

Hourly Weather History & Observations

Time (MST) Temp. Windchill Dew Point Humidity Pressure Visibility Wind Dir Wind Speed Gust Speed Precip Events Conditions
12:53 AM 35.1 °F 26.9 °F 30.9 °F 85% 29.74 in 10.0 mi SSE 11.5 mph - N/A   Clear
1:53 AM 34.0 °F 26.0 °F 30.9 °F 89% 29.72 in 10.0 mi SSE 10.4 mph - N/A   Clear
2:53 AM 33.1 °F 25.5 °F 30.0 °F 89% 29.69 in 10.0 mi SSE 9.2 mph - N/A   Clear
3:53 AM 32.0 °F 25.6 °F 30.0 °F 92% 29.67 in 10.0 mi SSE 6.9 mph - N/A   Clear
4:53 AM 37.0 °F 31.6 °F 30.9 °F 79% 29.66 in 10.0 mi South 6.9 mph - N/A   Clear
5:53 AM 39.0 °F 32.8 °F 33.1 °F 79% 29.67 in 10.0 mi SSW 9.2 mph - N/A   Clear
6:53 AM 39.0 °F 34.0 °F 32.0 °F 76% 29.66 in 10.0 mi South 6.9 mph - N/A   Clear
7:53 AM 39.0 °F 35.7 °F 32.0 °F 76% 29.67 in 10.0 mi South 4.6 mph - N/A   Clear
8:53 AM 41.0 °F 35.2 °F 34.0 °F 76% 29.65 in 10.0 mi South 9.2 mph - N/A   Clear
9:53 AM 44.1 °F 39.0 °F 34.0 °F 68% 29.62 in 10.0 mi South 9.2 mph - N/A   Clear
10:53 AM 53.1 °F - 32.0 °F 45% 29.58 in 10.0 mi SW 10.4 mph - N/A   Clear
11:53 AM 57.9 °F - 28.9 °F 33% 29.52 in 10.0 mi West 11.5 mph 18.4 mph N/A   Clear
12:53 PM 61.0 °F - 21.9 °F 22% 29.49 in 10.0 mi West 9.2 mph - N/A   Clear
1:53 PM 60.1 °F - 21.9 °F 23% 29.47 in 10.0 mi WNW 6.9 mph - N/A   Partly Cloudy
2:53 PM 57.0 °F - 25.0 °F 29% 29.47 in 10.0 mi SSW 3.5 mph - N/A   Mostly Cloudy
3:53 PM 51.1 °F - 28.9 °F 43% 29.50 in 10.0 mi SE 6.9 mph - N/A   Overcast
4:53 PM 51.1 °F - 25.0 °F 36% 29.47 in 10.0 mi SE 6.9 mph - N/A   Overcast
5:53 PM 48.0 °F - 28.0 °F 46% 29.44 in 10.0 mi SSW 10.4 mph - N/A   Partly Cloudy
6:53 PM 48.9 °F - 30.9 °F 50% 29.46 in 10.0 mi South 13.8 mph - N/A   Overcast
7:53 PM 48.0 °F - 30.9 °F 52% 29.48 in 10.0 mi WSW 5.8 mph - N/A   Overcast
8:53 PM 44.1 °F - 28.9 °F 55% 29.45 in 10.0 mi Calm Calm - N/A   Scattered Clouds
9:53 PM 41.0 °F 38.0 °F 30.9 °F 67% 29.44 in 10.0 mi SW 4.6 mph - N/A   Overcast
10:53 PM 43.0 °F 41.3 °F 33.1 °F 68% 29.40 in 10.0 mi West 3.5 mph - N/A   Overcast
11:53 PM 39.0 °F 34.0 °F 30.0 °F 70% 29.39 in 10.0 mi West 6.9 mph - N/A   Clear